Location: Unspecified
(48.2450°N, 16.2270°E)
Time: 01:52:12
(UTC+00:00)

Daily predictions for brighter satellites

Satellite Brightness Start Highest point End
(mag) Time Altitude Azimuth Time Altitude Azimuth Time Altitude Azimuth
USA 234 4.0 00:00:28 10° ENE 00:06:26 36° SE 00:09:26 25° S
Cosmos 1607 4.3 00:00:21 10° NW 00:06:28 48° WSW 00:09:38 27° S
Cosmos 2082 Rocket 3.7 00:03:49 10° NNW 00:09:01 36° NE 00:14:10 10° ESE
Cosmos 923 Rocket 4.0 00:06:51 32° SSW 00:09:19 80° ESE 00:14:36 10° NNE
Cosmos 1420 Rocket 4.0 00:04:42 10° NNW 00:09:54 66° WSW 00:12:28 30° S
Cosmos 1943 Rocket 2.7 00:09:01 26° S 00:11:53 49° ESE 00:17:20 10° NE
ADEOS Rocket 4.1 00:06:45 10° NNE 00:13:26 43° E 00:18:12 16° SSE
Cosmos 2278 Rocket 3.0 00:10:41 22° SSE 00:13:42 40° ESE 00:18:57 10° NE
Cosmos 2112 Rocket 4.3 00:12:44 28° S 00:15:18 55° ESE 00:20:21 10° NNE
Okean 1-7 4.3 00:15:36 18° SE 00:17:59 32° E 00:21:42 10° NNE
Cosmos 1441 Rocket 2.7 00:19:09 49° S 00:19:54 75° E 00:23:11 10° NNE
IRIDIUM 103 4.3 00:16:20 10° N 00:21:36 81° E 00:24:49 24° S
Cosmos 494 Rocket 4.1 00:21:33 28° S 00:24:14 66° ESE 00:29:26 10° NNE
Cosmos 1933 Rocket 3.9 00:20:31 10° NNW 00:24:40 47° W 00:26:08 33° SW
NOSS 3-2 (C) 3.4 00:21:55 23° WSW 00:25:12 67° NW 00:31:21 10° NE
Cosmos 1371 Rocket 4.0 00:21:07 10° NNW 00:26:27 90° SSE 00:30:36 17° SSE
Cosmos 1833 Rocket 3.1 00:22:23 10° NW 00:27:41 43° WSW 00:30:14 27° SSW
MSX 4.2 00:22:26 10° NNE 00:28:10 58° ESE 00:32:01 21° S
CZ-2C R/B 4.2 00:27:56 16° WSW 00:29:26 18° W 00:32:56 10° NW
CZ-4C R/B 4.4 00:27:41 10° N 00:30:53 30° WNW 00:32:12 23° WSW
Cosmos 1400 Rocket 3.2 00:29:31 10° NNW 00:33:04 40° W 00:33:59 33° SW
USA 238 DEB 4.1 00:30:11 22° S 00:33:44 45° ESE 00:40:00 10° NE
USA 238 4.1 00:30:24 22° S 00:33:58 45° ESE 00:40:13 10° NE
IDEFIX/ARIANE 42P 2.8 00:31:22 10° NNE 00:36:37 65° ESE 00:40:00 22° S
SeaSat 1 2.6 00:33:31 10° SE 00:38:23 75° ENE 00:43:18 10° NNW
NPP 4.2 00:33:18 10° NNE 00:38:36 52° E 00:42:28 18° S
IRIDIUM 106 4.3 00:34:40 10° N 00:39:54 72° W 00:43:05 24° S
Cosmos 1812 3.9 00:42:57 10° NW 00:43:02 11° NW 00:43:02 11° NW
CZ-3B R/B 4.5 00:43:04 21° SSW 00:48:13 62° SE 01:20:25 10° NE
Cosmos 1110 Rocket 4.3 00:45:00 10° NNW 00:50:13 67° ENE 00:55:22 10° SSE
Cosmos 1328 3.5 00:49:46 32° SSW 00:51:16 68° W 00:54:50 10° N
NOSS 2-1 (D) 4.3 00:50:53 21° SSE 00:52:27 29° SE 00:55:17 10° ENE
Cosmos 2366 rocket 4.2 00:48:58 10° N 00:55:21 73° E 01:01:42 10° SSE
Cosmos 2327 Rocket 4.4 00:52:15 10° NNW 00:58:30 78° W 01:03:50 14° S
Meteor 2-5 Rocket 4.3 00:54:52 13° S 00:59:45 54° E 01:05:20 10° NNE
Cosmos 2341 Rocket 4.1 00:54:32 10° N 01:00:53 83° E 01:07:08 10° S
Cosmos 2369 Rocket 4.5 01:05:12 10° SE 01:08:27 16° E 01:11:43 10° ENE
Cosmos 2228 Rocket 3.2 01:06:17 17° S 01:09:35 73° E 01:13:58 10° NNE
Meteor 2-15 4.4 01:03:42 10° N 01:09:51 85° W 01:15:57 10° S
USA 59 Rocket -0.3 01:10:44 23° SSW 01:12:42 54° SE 01:15:43 10° NE
Cosmos 864 Rocket 4.5 01:07:32 10° N 01:13:48 85° W 01:20:06 10° S
CZ-2D R/B 3.5 01:09:10 10° NNE 01:14:11 35° E 01:19:08 10° SSE
Cosmos 1707 Rocket 3.5 01:12:31 20° SSW 01:15:25 69° W 01:19:46 10° N
Cosmos 1315 Rocket 3.0 01:11:58 10° N 01:15:43 65° ENE 01:19:28 10° SSE
Cosmos 1680 Rocket 4.2 01:12:08 17° SW 01:15:48 42° WNW 01:20:45 10° NNE
Cosmos 1821 Rocket 4.2 01:09:37 10° N 01:15:48 70° E 01:21:52 10° SSE
DMSP B5D2-2 4.3 01:13:00 10° SSE 01:18:12 72° ENE 01:23:27 10° N
Cosmos 2056 Rocket 4.3 01:14:27 10° NW 01:18:57 31° W 01:22:00 17° SSW
Cosmos 614 Rocket 4.4 01:17:09 13° S 01:21:34 56° ESE 01:26:34 10° NNE
H-2A R/B 4.2 01:18:24 10° SE 01:21:39 29° ENE 01:24:58 10° N
Cosmos 1862 Rocket 3.8 01:20:49 19° SSW 01:23:44 52° WNW 01:27:57 10° N
Resurs 1-4 Rocket 3.0 01:19:15 10° NNE 01:24:18 45° E 01:29:18 10° S
Cosmos 1733 Rocket 3.7 01:23:34 10° NNW 01:27:30 35° W 01:30:18 17° SSW
Cosmos 1331 Rocket 4.0 01:29:17 10° NNW 01:34:19 58° WSW 01:39:21 10° S
Cosmos 1048 Rocket 4.1 01:30:33 16° SSW 01:34:42 68° WNW 01:39:55 10° NNE
Cosmos 1656 Rocket 4.1 01:30:10 11° S 01:35:16 55° ESE 01:40:37 10° NE
H-2A R/B 3.0 01:32:54 10° NNE 01:38:09 49° E 01:43:18 10° S
COSMOS 2406 3.5 01:33:13 10° NNW 01:38:57 75° ENE 01:44:37 10° SSE
Meteor 2-15 Rocket 4.5 01:34:14 10° NNW 01:40:21 71° W 01:46:24 10° S
ACS3 Solar Sail 3.7 01:39:43 10° NNW 01:42:41 15° NW 01:45:41 10° W
NOAA 11 4.3 01:37:47 10° N 01:43:16 71° WNW 01:48:32 11° SSW
USA 281 3.9 01:37:44 10° SE 01:44:09 61° ENE 01:50:37 10° NNW
Cosmos 1908 Rocket 3.5 01:42:37 10° NNW 01:47:04 75° W 01:51:28 10° S
Lacrosse 5 rocket 1.1 01:46:35 14° SW 01:49:26 58° SE 01:52:50 10° ENE
USA 234 3.4 01:43:16 10° NE 01:49:50 82° NNW 01:56:24 10° WSW
Cosmos 1869 2.9 01:49:03 10° NNW 01:52:26 60° W 01:55:47 10° S
Cosmos 2082 Rocket 2.5 01:47:51 10° NW 01:53:12 44° WSW 01:58:28 10° S
NOSS 2-1 (E) 2.9 01:50:05 13° SW 01:53:31 88° ESE 01:56:43 10° NE
Okean 1-7 4.3 01:51:52 12° SW 01:54:59 25° WNW 01:58:28 10° NNW
BREEZE-M DEB (TANK) 1.9 01:50:03 10° WNW 01:55:10 59° SSW 01:57:41 10° SE
Cosmos 1943 Rocket 3.3 01:50:43 10° WSW 01:55:49 33° NW 02:00:56 10° NNE
Meteor 1-24 Rocket 4.2 01:50:52 11° SSW 01:56:13 51° WNW 02:02:02 10° N
Cosmos 2278 Rocket 3.1 01:52:30 10° WSW 01:57:46 39° NW 02:03:06 10° NNE
ADEOS Rocket 3.9 01:52:15 10° N 01:58:54 43° WNW 02:04:55 10° SW
ADEOS II 2.6 01:54:40 10° NNE 01:59:52 61° ESE 02:05:01 10° S
Cosmos 1302 Rocket 4.0 01:57:16 10° NNW 02:02:32 77° WSW 02:07:47 10° SSE
SL-24 DEB 4.5 01:58:29 10° SSE 02:02:52 68° E 02:07:17 10° N
Cosmos 1782 Rocket 3.7 01:58:50 10° N 02:03:19 83° E 02:07:43 10° S
Cosmos 2181 Rocket 4.2 02:00:57 10° SSW 02:07:01 57° WNW 02:13:13 10° N
Envisat 3.1 02:02:34 10° N 02:07:36 65° WNW 02:12:35 10° SSW
IDEFIX/ARIANE 42P 4.2 02:11:40 10° N 02:15:36 22° WNW 02:19:30 10° WSW
SeaSat 1 3.9 02:12:55 10° SSW 02:16:13 18° WSW 02:19:33 10° WNW
Cosmos 1452 Rocket 4.1 02:12:46 10° NW 02:17:34 37° WSW 02:22:21 10° SSW
USA 32 4.0 02:12:26 10° N 02:17:41 79° W 02:22:53 10° S
Cosmos 1174 4.0 02:15:17 10° SSW 02:19:43 69° SE 02:23:23 10° NE
